Time,TemperatureF,DewpointF,PressureIn,WindDirection,WindDirectionDegrees,WindSpeedMPH,WindSpeedGustMPH,Humidity,HourlyPrecipIn,Conditions,Clouds,dailyrainin,SoftwareType,DateUTC
2013-09-04 00:00:00,72.6,67.8,29.95,N/A,-737280,0.0,-999.0,85,0.00,,,0.00,Wunderground v.1.15,2013-09-04 04:00:00,
2013-09-04 00:05:00,72.6,67.8,29.95,N/A,-737280,0.0,-999.0,85,0.00,,,0.00,Wunderground v.1.15,2013-09-04 04:05:00,
2013-09-04 00:10:00,72.6,67.8,29.95,N/A,-737280,0.0,-999.0,85,0.00,,,0.00,Wunderground v.1.15,2013-09-04 04:10:00,
2013-09-04 00:15:00,72.6,67.8,29.95,N/A,-737280,0.0,-999.0,85,0.00,,,0.00,Wunderground v.1.15,2013-09-04 04:15:00,
2013-09-04 00:20:00,72.6,67.8,29.95,N/A,-737280,0.0,-999.0,85,0.00,,,0.00,Wunderground v.1.15,2013-09-04 04:20:00,
2013-09-04 00:25:00,72.6,67.8,29.95,N/A,-737280,0.0,-999.0,85,0.00,,,0.00,Wunderground v.1.15,2013-09-04 04:25:00,
2013-09-04 00:30:00,72.6,67.8,29.95,N/A,-737280,0.0,-999.0,85,0.00,,,0.00,Wunderground v.1.15,2013-09-04 04:30:00,
2013-09-04 00:35:00,72.6,67.8,29.95,N/A,-737280,0.0,-999.0,85,0.00,,,0.00,Wunderground v.1.15,2013-09-04 04:35:00,
2013-09-04 00:40:00,72.6,67.8,29.95,N/A,-737280,0.0,-999.0,85,0.00,,,0.00,Wunderground v.1.15,2013-09-04 04:40:00,
2013-09-04 00:45:00,71.8,66.4,29.95,N/A,-737280,0.0,-999.0,83,0.00,,,0.00,Wunderground v.1.15,2013-09-04 04:45:00,
2013-09-04 00:50:00,71.8,66.4,29.95,N/A,-737280,0.0,-999.0,83,0.00,,,0.00,Wunderground v.1.15,2013-09-04 04:50:00,
2013-09-04 00:55:00,71.8,66.4,29.95,N/A,-737280,0.0,-999.0,83,0.00,,,0.00,Wunderground v.1.15,2013-09-04 04:55:00,
2013-09-04 01:00:00,71.8,66.4,29.95,N/A,-737280,0.0,-999.0,83,0.00,,,0.00,Wunderground v.1.15,2013-09-04 05:00:00,
2013-09-04 01:05:00,71.8,66.4,29.95,N/A,-737280,0.0,-999.0,83,0.00,,,0.00,Wunderground v.1.15,2013-09-04 05:05:00,
2013-09-04 01:10:00,71.8,66.4,29.95,N/A,-737280,0.0,-999.0,83,0.00,,,0.00,Wunderground v.1.15,2013-09-04 05:10:00,
2013-09-04 01:15:00,71.6,65.8,29.95,N/A,-737280,0.0,-999.0,82,0.00,,,0.00,Wunderground v.1.15,2013-09-04 05:15:00,
2013-09-04 01:20:00,71.6,65.8,29.95,N/A,-737280,0.0,-999.0,82,0.00,,,0.00,Wunderground v.1.15,2013-09-04 05:20:00,
2013-09-04 01:25:00,71.6,65.8,29.95,N/A,-737280,0.0,-999.0,82,0.00,,,0.00,Wunderground v.1.15,2013-09-04 05:25:00,
2013-09-04 01:30:00,71.6,65.8,29.95,N/A,-737280,0.0,-999.0,82,0.00,,,0.00,Wunderground v.1.15,2013-09-04 05:30:00,
2013-09-04 01:35:00,71.6,65.8,29.95,N/A,-737280,0.0,-999.0,82,0.00,,,0.00,Wunderground v.1.15,2013-09-04 05:35:00,
2013-09-04 01:40:00,71.6,65.8,29.95,N/A,-737280,0.0,-999.0,82,0.00,,,0.00,Wunderground v.1.15,2013-09-04 05:40:00,
2013-09-04 01:45:00,71.2,64.7,29.95,N/A,-737280,0.0,-999.0,80,0.00,,,0.00,Wunderground v.1.15,2013-09-04 05:45:00,
2013-09-04 01:50:00,71.2,64.7,29.95,N/A,-737280,0.0,-999.0,80,0.00,,,0.00,Wunderground v.1.15,2013-09-04 05:50:00,
2013-09-04 01:55:00,71.2,64.7,29.95,N/A,-737280,0.0,-999.0,80,0.00,,,0.00,Wunderground v.1.15,2013-09-04 05:55:00,
2013-09-04 02:00:00,71.2,64.7,29.95,N/A,-737280,0.0,-999.0,80,0.00,,,0.00,Wunderground v.1.15,2013-09-04 06:00:00,
2013-09-04 02:05:00,71.2,64.7,29.95,N/A,-737280,0.0,-999.0,80,0.00,,,0.00,Wunderground v.1.15,2013-09-04 06:05:00,
2013-09-04 02:10:00,71.2,64.7,29.95,N/A,-737280,0.0,-999.0,80,0.00,,,0.00,Wunderground v.1.15,2013-09-04 06:10:00,
2013-09-04 02:15:00,71.0,63.4,29.95,NNW,338,0.0,-999.0,77,0.00,,,0.00,Wunderground v.1.15,2013-09-04 06:15:00,
2013-09-04 02:20:00,71.0,63.4,29.95,NNW,338,0.0,-999.0,77,0.00,,,0.00,Wunderground v.1.15,2013-09-04 06:20:00,
2013-09-04 02:25:00,71.0,63.4,29.95,NNW,338,0.0,-999.0,77,0.00,,,0.00,Wunderground v.1.15,2013-09-04 06:25:00,
2013-09-04 02:30:00,71.0,63.4,29.95,NNW,338,0.0,-999.0,77,0.00,,,0.00,Wunderground v.1.15,2013-09-04 06:30:00,
2013-09-04 02:35:00,71.0,63.4,29.95,NNW,338,0.0,-999.0,77,0.00,,,0.00,Wunderground v.1.15,2013-09-04 06:35:00,
2013-09-04 02:40:00,71.0,63.4,29.95,NNW,338,0.0,-999.0,77,0.00,,,0.00,Wunderground v.1.15,2013-09-04 06:40:00,
2013-09-04 02:45:00,70.7,62.8,29.95,North,0,0.0,-999.0,76,0.00,,,0.00,Wunderground v.1.15,2013-09-04 06:45:00,
2013-09-04 02:50:00,70.7,62.8,29.95,North,0,0.0,-999.0,76,0.00,,,0.00,Wunderground v.1.15,2013-09-04 06:50:00,
2013-09-04 02:55:00,70.7,62.8,29.95,North,0,0.0,-999.0,76,0.00,,,0.00,Wunderground v.1.15,2013-09-04 06:55:00,
2013-09-04 03:00:00,70.7,62.8,29.95,North,0,0.0,-999.0,76,0.00,,,0.00,Wunderground v.1.15,2013-09-04 07:00:00,
2013-09-04 03:05:00,70.7,62.8,29.95,North,0,0.0,-999.0,76,0.00,,,0.00,Wunderground v.1.15,2013-09-04 07:05:00,
2013-09-04 03:10:00,70.7,62.8,29.95,North,0,0.0,-999.0,76,0.00,,,0.00,Wunderground v.1.15,2013-09-04 07:10:00,
2013-09-04 03:15:00,70.1,62.6,29.95,North,0,0.0,-999.0,77,0.00,,,0.00,Wunderground v.1.15,2013-09-04 07:15:00,
2013-09-04 03:20:00,70.1,62.6,29.95,North,0,0.0,-999.0,77,0.00,,,0.00,Wunderground v.1.15,2013-09-04 07:20:00,
2013-09-04 03:25:00,70.1,62.6,29.95,North,0,0.0,-999.0,77,0.00,,,0.00,Wunderground v.1.15,2013-09-04 07:25:00,
2013-09-04 03:30:00,70.1,62.6,29.95,North,0,0.0,-999.0,77,0.00,,,0.00,Wunderground v.1.15,2013-09-04 07:30:00,
2013-09-04 03:35:00,70.1,62.6,29.95,North,0,0.0,-999.0,77,0.00,,,0.00,Wunderground v.1.15,2013-09-04 07:35:00,
2013-09-04 03:45:00,69.0,61.9,29.96,North,0,0.0,-999.0,78,0.00,,,0.00,Wunderground v.1.15,2013-09-04 07:45:00,
2013-09-04 03:55:00,69.0,61.9,29.96,North,0,0.0,-999.0,78,0.00,,,0.00,Wunderground v.1.15,2013-09-04 07:55:00,
2013-09-04 04:00:00,69.0,61.9,29.96,North,0,0.0,-999.0,78,0.00,,,0.00,Wunderground v.1.15,2013-09-04 08:00:00,
2013-09-04 04:05:00,69.0,61.9,29.96,North,0,0.0,-999.0,78,0.00,,,0.00,Wunderground v.1.15,2013-09-04 08:05:00,
2013-09-04 04:15:00,68.0,61.9,29.96,N/A,-737280,0.0,-999.0,81,0.00,,,0.00,Wunderground v.1.15,2013-09-04 08:15:00,
2013-09-04 04:30:00,68.0,61.9,29.96,N/A,-737280,0.0,-999.0,81,0.00,,,0.00,Wunderground v.1.15,2013-09-04 08:30:00,
2013-09-04 04:35:00,68.0,61.9,29.96,N/A,-737280,0.0,-999.0,81,0.00,,,0.00,Wunderground v.1.15,2013-09-04 08:35:00,
2013-09-04 04:40:00,68.0,61.9,29.96,N/A,-737280,0.0,-999.0,81,0.00,,,0.00,Wunderground v.1.15,2013-09-04 08:40:00,
2013-09-04 04:45:00,67.2,61.9,29.97,North,0,0.0,-999.0,83,0.00,,,0.00,Wunderground v.1.15,2013-09-04 08:45:00,
2013-09-04 04:50:00,67.2,61.9,29.97,North,0,0.0,-999.0,83,0.00,,,0.00,Wunderground v.1.15,2013-09-04 08:50:00,
2013-09-04 04:55:00,67.2,61.9,29.97,North,0,0.0,-999.0,83,0.00,,,0.00,Wunderground v.1.15,2013-09-04 08:55:00,
2013-09-04 05:00:00,67.2,61.9,29.97,North,0,0.0,-999.0,83,0.00,,,0.00,Wunderground v.1.15,2013-09-04 09:00:00,
2013-09-04 05:05:00,67.2,61.9,29.97,North,0,0.0,-999.0,83,0.00,,,0.00,Wunderground v.1.15,2013-09-04 09:05:00,
2013-09-04 05:10:00,67.2,61.9,29.97,North,0,0.0,-999.0,83,0.00,,,0.00,Wunderground v.1.15,2013-09-04 09:10:00,
2013-09-04 05:15:00,67.3,62.0,29.98,North,0,0.0,-999.0,83,0.00,,,0.00,Wunderground v.1.15,2013-09-04 09:15:00,
2013-09-04 05:20:00,67.3,62.0,29.98,North,0,0.0,-999.0,83,0.00,,,0.00,Wunderground v.1.15,2013-09-04 09:20:00,
2013-09-04 05:25:00,67.3,62.0,29.98,North,0,0.0,-999.0,83,0.00,,,0.00,Wunderground v.1.15,2013-09-04 09:25:00,
2013-09-04 05:30:00,67.3,62.0,29.98,North,0,0.0,-999.0,83,0.00,,,0.00,Wunderground v.1.15,2013-09-04 09:30:00,
2013-09-04 05:35:00,67.3,62.0,29.98,North,0,0.0,-999.0,83,0.00,,,0.00,Wunderground v.1.15,2013-09-04 09:35:00,
2013-09-04 05:40:00,67.3,62.0,29.98,North,0,0.0,-999.0,83,0.00,,,0.00,Wunderground v.1.15,2013-09-04 09:40:00,
2013-09-04 05:45:00,66.9,61.9,29.99,N/A,-737280,0.0,-999.0,84,0.00,,,0.00,Wunderground v.1.15,2013-09-04 09:45:00,
2013-09-04 05:50:00,66.9,61.9,29.99,N/A,-737280,0.0,-999.0,84,0.00,,,0.00,Wunderground v.1.15,2013-09-04 09:50:00,
2013-09-04 05:55:00,66.9,61.9,29.99,N/A,-737280,0.0,-999.0,84,0.00,,,0.00,Wunderground v.1.15,2013-09-04 09:55:00,
2013-09-04 06:00:00,66.9,61.9,29.99,N/A,-737280,0.0,-999.0,84,0.00,,,0.00,Wunderground v.1.15,2013-09-04 10:00:00,
2013-09-04 06:05:00,66.9,61.9,29.99,N/A,-737280,0.0,-999.0,84,0.00,,,0.00,Wunderground v.1.15,2013-09-04 10:05:00,
2013-09-04 06:10:00,66.9,61.9,29.99,N/A,-737280,0.0,-999.0,84,0.00,,,0.00,Wunderground v.1.15,2013-09-04 10:10:00,
2013-09-04 06:15:00,66.4,61.4,30.00,N/A,-737280,0.0,-999.0,84,0.00,,,0.00,Wunderground v.1.15,2013-09-04 10:15:00,
2013-09-04 06:20:00,66.4,61.4,30.00,N/A,-737280,0.0,-999.0,84,0.00,,,0.00,Wunderground v.1.15,2013-09-04 10:20:00,
2013-09-04 06:25:00,66.4,61.4,30.00,N/A,-737280,0.0,-999.0,84,0.00,,,0.00,Wunderground v.1.15,2013-09-04 10:25:00,
2013-09-04 06:30:00,66.4,61.4,30.00,N/A,-737280,0.0,-999.0,84,0.00,,,0.00,Wunderground v.1.15,2013-09-04 10:30:00,
2013-09-04 06:35:00,66.4,61.4,30.00,N/A,-737280,0.0,-999.0,84,0.00,,,0.00,Wunderground v.1.15,2013-09-04 10:35:00,
2013-09-04 06:40:00,66.4,61.4,30.00,N/A,-737280,0.0,-999.0,84,0.00,,,0.00,Wunderground v.1.15,2013-09-04 10:40:00,
2013-09-04 06:45:00,66.1,61.5,30.01,N/A,-737280,0.0,-999.0,85,0.00,,,0.00,Wunderground v.1.15,2013-09-04 10:45:00,
2013-09-04 06:50:00,66.1,61.5,30.01,N/A,-737280,0.0,-999.0,85,0.00,,,0.00,Wunderground v.1.15,2013-09-04 10:50:00,
2013-09-04 06:55:00,66.1,61.5,30.01,N/A,-737280,0.0,-999.0,85,0.00,,,0.00,Wunderground v.1.15,2013-09-04 10:55:00,
2013-09-04 07:00:00,66.1,61.5,30.01,N/A,-737280,0.0,-999.0,85,0.00,,,0.00,Wunderground v.1.15,2013-09-04 11:00:00,
2013-09-04 07:05:00,66.1,61.5,30.01,N/A,-737280,0.0,-999.0,85,0.00,,,0.00,Wunderground v.1.15,2013-09-04 11:05:00,
2013-09-04 07:10:00,66.1,61.5,30.01,N/A,-737280,0.0,-999.0,85,0.00,,,0.00,Wunderground v.1.15,2013-09-04 11:10:00,
2013-09-04 07:15:00,66.6,61.6,30.02,NE,45,0.0,-999.0,84,0.00,,,0.00,Wunderground v.1.15,2013-09-04 11:15:00,
2013-09-04 07:20:00,66.6,61.6,30.02,NE,45,0.0,-999.0,84,0.00,,,0.00,Wunderground v.1.15,2013-09-04 11:20:00,
2013-09-04 07:25:00,66.6,61.6,30.02,NE,45,0.0,-999.0,84,0.00,,,0.00,Wunderground v.1.15,2013-09-04 11:25:00,
2013-09-04 07:30:00,66.6,61.6,30.02,NE,45,0.0,-999.0,84,0.00,,,0.00,Wunderground v.1.15,2013-09-04 11:30:00,
2013-09-04 07:35:00,66.6,61.6,30.02,NE,45,0.0,-999.0,84,0.00,,,0.00,Wunderground v.1.15,2013-09-04 11:35:00,
2013-09-04 07:40:00,66.6,61.6,30.02,NE,45,0.0,-999.0,84,0.00,,,0.00,Wunderground v.1.15,2013-09-04 11:40:00,
2013-09-04 07:45:00,67.4,62.1,30.03,NE,45,0.0,-999.0,83,0.00,,,0.00,Wunderground v.1.15,2013-09-04 11:45:00,
2013-09-04 07:50:00,67.4,62.1,30.03,NE,45,0.0,-999.0,83,0.00,,,0.00,Wunderground v.1.15,2013-09-04 11:50:00,
2013-09-04 07:55:00,67.4,62.1,30.03,NE,45,0.0,-999.0,83,0.00,,,0.00,Wunderground v.1.15,2013-09-04 11:55:00,
2013-09-04 08:00:00,67.4,62.1,30.03,NE,45,0.0,-999.0,83,0.00,,,0.00,Wunderground v.1.15,2013-09-04 12:00:00,
2013-09-04 08:20:00,68.2,62.8,30.04,NNE,22,0.0,1.0,83,0.00,,,0.00,Wunderground v.1.15,2013-09-04 12:20:00,
2013-09-04 08:25:00,68.4,62.7,30.04,NNE,22,0.0,1.0,82,0.00,,,0.00,Wunderground v.1.15,2013-09-04 12:25:00,
2013-09-04 08:30:00,68.6,62.9,30.04,NNE,22,0.0,0.0,82,0.00,,,0.00,Wunderground v.1.15,2013-09-04 12:30:00,
2013-09-04 08:35:00,68.9,63.2,30.05,NNE,22,0.0,0.0,82,0.00,,,0.00,Wunderground v.1.15,2013-09-04 12:35:00,
2013-09-04 08:40:00,69.2,63.5,30.05,NNE,22,0.0,0.0,82,0.00,,,0.00,Wunderground v.1.15,2013-09-04 12:40:00,
2013-09-04 08:45:00,69.5,63.4,30.05,NNE,22,0.0,0.0,81,0.00,,,0.00,Wunderground v.1.15,2013-09-04 12:45:00,
2013-09-04 08:50:00,69.7,64.0,30.05,NNE,22,0.0,0.0,82,0.00,,,0.00,Wunderground v.1.15,2013-09-04 12:50:00,
2013-09-04 08:55:00,70.0,63.5,30.05,NNE,22,0.0,0.0,80,0.00,,,0.00,Wunderground v.1.15,2013-09-04 12:55:00,
2013-09-04 09:00:00,70.5,63.7,30.05,North,360,0.0,0.0,79,0.00,,,0.00,Wunderground v.1.15,2013-09-04 13:00:00,
2013-09-04 09:05:00,71.2,64.4,30.05,SE,128,1.0,1.0,79,0.00,,,0.00,Wunderground v.1.15,2013-09-04 13:05:00,
2013-09-04 09:10:00,71.8,64.9,30.06,SSE,148,0.0,0.0,79,0.00,,,0.00,Wunderground v.1.15,2013-09-04 13:10:00,
2013-09-04 09:15:00,72.4,64.4,30.06,NE,36,1.0,1.0,76,0.00,,,0.00,Wunderground v.1.15,2013-09-04 13:15:00,
2013-09-04 09:20:00,73.0,65.7,30.06,East,81,0.0,1.0,78,0.00,,,0.00,Wunderground v.1.15,2013-09-04 13:20:00,
2013-09-04 09:25:00,73.7,64.9,30.06,East,85,1.0,2.0,74,0.00,,,0.00,Wunderground v.1.15,2013-09-04 13:25:00,
2013-09-04 09:30:00,74.3,65.9,30.06,North,360,1.0,3.0,75,0.00,,,0.00,Wunderground v.1.15,2013-09-04 13:30:00,
2013-09-04 09:35:00,74.8,65.2,30.06,East,89,1.0,3.0,72,0.00,,,0.00,Wunderground v.1.15,2013-09-04 13:35:00,
2013-09-04 09:40:00,75.3,66.0,30.06,NNE,22,1.0,3.0,73,0.00,,,0.00,Wunderground v.1.15,2013-09-04 13:40:00,
2013-09-04 09:45:00,76.1,66.4,30.06,NNE,32,1.0,3.0,72,0.00,,,0.00,Wunderground v.1.15,2013-09-04 13:45:00,
2013-09-04 09:50:00,76.8,66.7,30.06,NNE,33,1.0,1.0,71,0.00,,,0.00,Wunderground v.1.15,2013-09-04 13:50:00,
2013-09-04 09:55:00,77.2,65.8,30.06,ENE,62,1.0,1.0,68,0.00,,,0.00,Wunderground v.1.15,2013-09-04 13:55:00,
2013-09-04 10:00:00,77.8,66.8,30.07,ENE,68,1.0,1.0,69,0.00,,,0.00,Wunderground v.1.15,2013-09-04 14:00:00,
2013-09-04 10:05:00,78.2,66.3,30.07,NE,50,1.0,3.0,67,0.00,,,0.00,Wunderground v.1.15,2013-09-04 14:05:00,
2013-09-04 10:10:00,78.8,67.3,30.07,NE,55,1.0,1.0,68,0.00,,,0.00,Wunderground v.1.15,2013-09-04 14:10:00,
2013-09-04 10:15:00,79.4,67.5,30.07,ENE,66,0.0,3.0,67,0.00,,,0.00,Wunderground v.1.15,2013-09-04 14:15:00,
2013-09-04 10:20:00,79.6,66.3,30.07,ESE,106,1.0,1.0,64,0.00,,,0.00,Wunderground v.1.15,2013-09-04 14:20:00,
2013-09-04 10:25:00,79.9,67.1,30.07,SSE,159,1.0,3.0,65,0.00,,,0.00,Wunderground v.1.15,2013-09-04 14:25:00,
2013-09-04 10:30:00,80.1,65.9,30.07,NNW,343,0.0,3.0,62,0.00,,,0.00,Wunderground v.1.15,2013-09-04 14:30:00,
2013-09-04 10:35:00,80.1,65.9,30.07,NE,42,1.0,3.0,62,0.00,,,0.00,Wunderground v.1.15,2013-09-04 14:35:00,
2013-09-04 10:40:00,80.4,65.2,30.07,NNE,21,1.0,3.0,60,0.00,,,0.00,Wunderground v.1.15,2013-09-04 14:40:00,
2013-09-04 10:45:00,80.5,64.9,30.07,ENE,69,1.0,3.0,59,0.00,,,0.00,Wunderground v.1.15,2013-09-04 14:45:00,
2013-09-04 10:50:00,80.6,65.4,30.07,North,355,1.0,1.0,60,0.00,,,0.00,Wunderground v.1.15,2013-09-04 14:50:00,
2013-09-04 10:55:00,80.8,65.6,30.07,NE,34,1.0,2.0,60,0.00,,,0.00,Wunderground v.1.15,2013-09-04 14:55:00,
2013-09-04 11:00:00,80.9,64.2,30.07,NNW,342,1.0,3.0,57,0.00,,,0.00,Wunderground v.1.15,2013-09-04 15:00:00,
2013-09-04 11:05:00,80.7,65.0,30.07,East,88,2.0,3.0,59,0.00,,,0.00,Wunderground v.1.15,2013-09-04 15:05:00,
2013-09-04 11:10:00,81.0,66.3,30.07,NNE,26,1.0,3.0,61,0.00,,,0.00,Wunderground v.1.15,2013-09-04 15:10:00,
2013-09-04 11:15:00,81.2,66.0,30.07,SE,136,1.0,3.0,60,0.00,,,0.00,Wunderground v.1.15,2013-09-04 15:15:00,
2013-09-04 11:20:00,81.7,66.5,30.07,East,92,1.0,1.0,60,0.00,,,0.00,Wunderground v.1.15,2013-09-04 15:20:00,
2013-09-04 11:25:00,82.2,66.9,30.07,NE,53,0.0,2.0,60,0.00,,,0.00,Wunderground v.1.15,2013-09-04 15:25:00,
2013-09-04 11:30:00,82.5,66.7,30.07,ENE,67,0.0,3.0,59,0.00,,,0.00,Wunderground v.1.15,2013-09-04 15:30:00,
2013-09-04 11:35:00,82.2,66.4,30.07,North,10,1.0,3.0,59,0.00,,,0.00,Wunderground v.1.15,2013-09-04 15:35:00,
2013-09-04 11:40:00,82.2,67.9,30.07,NE,43,0.0,3.0,62,0.00,,,0.00,Wunderground v.1.15,2013-09-04 15:40:00,
2013-09-04 11:45:00,82.7,66.9,30.07,ESE,113,0.0,3.0,59,0.00,,,0.00,Wunderground v.1.15,2013-09-04 15:45:00,
2013-09-04 11:50:00,83.1,66.8,30.07,NNW,347,1.0,1.0,58,0.00,,,0.00,Wunderground v.1.15,2013-09-04 15:50:00,
2013-09-04 11:55:00,83.1,65.3,30.07,East,87,1.0,3.0,55,0.00,,,0.00,Wunderground v.1.15,2013-09-04 15:55:00,
2013-09-04 12:00:00,83.1,66.8,30.07,SE,137,1.0,1.0,58,0.00,,,0.00,Wunderground v.1.15,2013-09-04 16:00:00,
2013-09-04 12:05:00,83.3,66.5,30.07,NNE,20,1.0,2.0,57,0.00,,,0.00,Wunderground v.1.15,2013-09-04 16:05:00,
2013-09-04 12:10:00,83.2,66.4,30.07,NNE,22,1.0,1.0,57,0.00,,,0.00,Wunderground v.1.15,2013-09-04 16:10:00,
2013-09-04 12:15:00,83.4,67.6,30.07,ENE,71,1.0,3.0,59,0.00,,,0.00,Wunderground v.1.15,2013-09-04 16:15:00,
2013-09-04 12:20:00,83.8,66.9,30.07,East,80,0.0,3.0,57,0.00,,,0.00,Wunderground v.1.15,2013-09-04 16:20:00,
2013-09-04 12:25:00,84.0,66.6,30.07,NE,38,1.0,3.0,56,0.00,,,0.00,Wunderground v.1.15,2013-09-04 16:25:00,
2013-09-04 12:30:00,84.2,66.3,30.07,ESE,104,1.0,1.0,55,0.00,,,0.00,Wunderground v.1.15,2013-09-04 16:30:00,
2013-09-04 12:35:00,84.2,66.8,30.07,NNW,343,0.0,2.0,56,0.00,,,0.00,Wunderground v.1.15,2013-09-04 16:35:00,
2013-09-04 12:40:00,83.9,67.0,30.07,ENE,59,0.0,3.0,57,0.00,,,0.00,Wunderground v.1.15,2013-09-04 16:40:00,
2013-09-04 12:45:00,83.7,67.8,30.07,NE,56,0.0,3.0,59,0.00,,,0.00,Wunderground v.1.15,2013-09-04 16:45:00,
2013-09-04 12:50:00,84.0,69.1,30.07,NNE,22,0.0,3.0,61,0.00,,,0.00,Wunderground v.1.15,2013-09-04 16:50:00,
2013-09-04 12:55:00,84.5,67.6,30.07,NE,46,0.0,3.0,57,0.00,,,0.00,Wunderground v.1.15,2013-09-04 16:55:00,
2013-09-04 13:00:00,84.6,67.2,30.07,ESE,117,0.0,3.0,56,0.00,,,0.00,Wunderground v.1.15,2013-09-04 17:00:00,
2013-09-04 13:05:00,84.9,68.5,30.07,WSW,240,1.0,3.0,58,0.00,,,0.00,Wunderground v.1.15,2013-09-04 17:05:00,
2013-09-04 13:10:00,84.6,66.7,30.07,NNE,32,1.0,3.0,55,0.00,,,0.00,Wunderground v.1.15,2013-09-04 17:10:00,
2013-09-04 13:15:00,84.4,66.5,30.06,West,259,1.0,3.0,55,0.00,,,0.00,Wunderground v.1.15,2013-09-04 17:15:00,
2013-09-04 13:20:00,84.3,66.9,30.06,NNW,344,0.0,3.0,56,0.00,,,0.00,Wunderground v.1.15,2013-09-04 17:20:00,
2013-09-04 13:25:00,84.0,65.6,30.06,NNE,26,0.0,3.0,54,0.00,,,0.00,Wunderground v.1.15,2013-09-04 17:25:00,
2013-09-04 13:30:00,83.8,65.9,30.06,NNE,26,0.0,3.0,55,0.00,,,0.00,Wunderground v.1.15,2013-09-04 17:30:00,
2013-09-04 13:35:00,83.9,67.0,30.06,ENE,60,0.0,3.0,57,0.00,,,0.00,Wunderground v.1.15,2013-09-04 17:35:00,
2013-09-04 13:40:00,84.1,66.2,30.06,East,88,1.0,3.0,55,0.00,,,0.00,Wunderground v.1.15,2013-09-04 17:40:00,
2013-09-04 13:45:00,84.1,64.6,30.06,NNE,26,1.0,3.0,52,0.00,,,0.00,Wunderground v.1.15,2013-09-04 17:45:00,
2013-09-04 13:50:00,84.1,65.7,30.06,SSE,167,1.0,3.0,54,0.00,,,0.00,Wunderground v.1.15,2013-09-04 17:50:00,
2013-09-04 13:55:00,84.3,65.8,30.06,NE,54,0.0,3.0,54,0.00,,,0.00,Wunderground v.1.15,2013-09-04 17:55:00,
2013-09-04 14:00:00,84.3,65.8,30.06,NNE,30,0.0,3.0,54,0.00,,,0.00,Wunderground v.1.15,2013-09-04 18:00:00,
2013-09-04 14:05:00,84.3,65.3,30.06,West,281,1.0,3.0,53,0.00,,,0.00,Wunderground v.1.15,2013-09-04 18:05:00,
2013-09-04 14:10:00,84.3,65.3,30.06,ESE,104,1.0,1.0,53,0.00,,,0.00,Wunderground v.1.15,2013-09-04 18:10:00,
2013-09-04 14:15:00,84.7,66.2,30.06,South,172,0.0,3.0,54,0.00,,,0.00,Wunderground v.1.15,2013-09-04 18:15:00,
2013-09-04 14:20:00,84.6,65.6,30.05,South,184,0.0,3.0,53,0.00,,,0.00,Wunderground v.1.15,2013-09-04 18:20:00,
2013-09-04 14:25:00,84.8,65.2,30.05,SSE,156,0.0,3.0,52,0.00,,,0.00,Wunderground v.1.15,2013-09-04 18:25:00,
2013-09-04 14:35:00,85.0,65.4,30.05,WSW,250,0.0,3.0,52,0.00,,,0.00,Wunderground v.1.15,2013-09-04 18:35:00,
2013-09-04 14:40:00,84.8,66.3,30.05,West,267,0.0,3.0,54,0.00,,,0.00,Wunderground v.1.15,2013-09-04 18:40:00,
2013-09-04 14:45:00,85.0,68.1,30.05,West,267,0.0,3.0,57,0.00,,,0.00,Wunderground v.1.15,2013-09-04 18:45:00,
2013-09-04 14:50:00,85.1,67.1,30.05,WSW,253,1.0,3.0,55,0.00,,,0.00,Wunderground v.1.15,2013-09-04 18:50:00,
2013-09-04 14:55:00,85.0,66.5,30.05,WSW,253,1.0,3.0,54,0.00,,,0.00,Wunderground v.1.15,2013-09-04 18:55:00,
2013-09-04 15:00:00,84.9,65.3,30.04,North,5,1.0,1.0,52,0.00,,,0.00,Wunderground v.1.15,2013-09-04 19:00:00,
2013-09-04 15:05:00,85.2,67.2,30.05,WNW,292,0.0,3.0,55,0.00,,,0.00,Wunderground v.1.15,2013-09-04 19:05:00,
2013-09-04 15:10:00,85.5,66.4,30.04,SW,235,1.0,3.0,53,0.00,,,0.00,Wunderground v.1.15,2013-09-04 19:10:00,
2013-09-04 15:15:00,85.5,67.5,30.04,WSW,239,1.0,3.0,55,0.00,,,0.00,Wunderground v.1.15,2013-09-04 19:15:00,
2013-09-04 15:25:00,83.7,66.3,30.04,WSW,238,3.0,4.0,56,0.00,,,0.00,Wunderground v.1.15,2013-09-04 19:25:00,
2013-09-04 15:30:00,83.2,65.4,30.04,West,259,3.0,3.0,55,0.00,,,0.00,Wunderground v.1.15,2013-09-04 19:30:00,
2013-09-04 15:35:00,83.0,65.7,30.04,WSW,237,2.0,3.0,56,0.00,,,0.00,Wunderground v.1.15,2013-09-04 19:35:00,
2013-09-04 15:40:00,83.3,66.5,30.03,WSW,250,2.0,3.0,57,0.00,,,0.00,Wunderground v.1.15,2013-09-04 19:40:00,
2013-09-04 15:45:00,83.5,66.7,30.03,WSW,240,2.0,3.0,57,0.00,,,0.00,Wunderground v.1.15,2013-09-04 19:45:00,
2013-09-04 15:50:00,83.8,67.4,30.03,WSW,243,2.0,3.0,58,0.00,,,0.00,Wunderground v.1.15,2013-09-04 19:50:00,
2013-09-04 15:55:00,84.3,67.9,30.03,WSW,240,1.0,3.0,58,0.00,,,0.00,Wunderground v.1.15,2013-09-04 19:55:00,
2013-09-04 16:00:00,84.7,66.7,30.03,SW,236,1.0,3.0,55,0.00,,,0.00,Wunderground v.1.15,2013-09-04 20:00:00,
2013-09-04 16:05:00,85.0,67.0,30.03,SW,236,1.0,3.0,55,0.00,,,0.00,Wunderground v.1.15,2013-09-04 20:05:00,
2013-09-04 16:10:00,85.5,67.5,30.03,SSW,203,1.0,1.0,55,0.00,,,0.00,Wunderground v.1.15,2013-09-04 20:10:00,
2013-09-04 16:15:00,85.9,68.4,30.02,West,273,1.0,3.0,56,0.00,,,0.00,Wunderground v.1.15,2013-09-04 20:15:00,
2013-09-04 16:20:00,86.3,67.7,30.03,WSW,237,1.0,3.0,54,0.00,,,0.00,Wunderground v.1.15,2013-09-04 20:20:00,
2013-09-04 16:25:00,86.1,65.9,30.02,West,264,2.0,3.0,51,0.00,,,0.00,Wunderground v.1.15,2013-09-04 20:25:00,
2013-09-04 16:30:00,86.1,67.0,30.03,West,264,1.0,1.0,53,0.00,,,0.00,Wunderground v.1.15,2013-09-04 20:30:00,
2013-09-04 16:35:00,86.5,67.3,30.02,West,264,0.0,3.0,53,0.00,,,0.00,Wunderground v.1.15,2013-09-04 20:35:00,
2013-09-04 16:40:00,87.0,68.3,30.02,WNW,289,0.0,3.0,54,0.00,,,0.00,Wunderground v.1.15,2013-09-04 20:40:00,
2013-09-04 16:45:00,87.4,66.5,30.02,WNW,289,0.0,3.0,50,0.00,,,0.00,Wunderground v.1.15,2013-09-04 20:45:00,
2013-09-04 16:50:00,87.3,67.0,30.02,West,267,1.0,3.0,51,0.00,,,0.00,Wunderground v.1.15,2013-09-04 20:50:00,
2013-09-04 16:55:00,87.3,66.4,30.02,West,267,1.0,3.0,50,0.00,,,0.00,Wunderground v.1.15,2013-09-04 20:55:00,
2013-09-04 17:00:00,87.4,65.9,30.02,West,280,0.0,3.0,49,0.00,,,0.00,Wunderground v.1.15,2013-09-04 21:00:00,
2013-09-04 17:05:00,87.8,66.8,30.02,West,280,0.0,3.0,50,0.00,,,0.00,Wunderground v.1.15,2013-09-04 21:05:00,
2013-09-04 17:10:00,87.9,66.4,30.02,WSW,244,0.0,0.0,49,0.00,,,0.00,Wunderground v.1.15,2013-09-04 21:10:00,
2013-09-04 17:15:00,87.6,65.5,30.02,SSE,166,0.0,0.0,48,0.00,,,0.00,Wunderground v.1.15,2013-09-04 21:15:00,
2013-09-04 17:20:00,87.7,67.3,30.02,SW,232,0.0,0.0,51,0.00,,,0.00,Wunderground v.1.15,2013-09-04 21:20:00,
2013-09-04 17:25:00,87.9,66.9,30.01,WSW,243,0.0,0.0,50,0.00,,,0.00,Wunderground v.1.15,2013-09-04 21:25:00,
2013-09-04 17:30:00,88.0,68.2,30.01,WSW,255,0.0,0.0,52,0.00,,,0.00,Wunderground v.1.15,2013-09-04 21:30:00,
2013-09-04 17:40:00,87.0,65.5,30.01,WSW,255,1.0,1.0,49,0.00,,,0.00,Wunderground v.1.15,2013-09-04 21:40:00,
2013-09-04 17:45:00,87.0,66.1,30.01,WSW,254,0.0,1.0,50,0.00,,,0.00,Wunderground v.1.15,2013-09-04 21:45:00,
2013-09-04 17:50:00,87.2,66.3,30.01,WSW,254,0.0,0.0,50,0.00,,,0.00,Wunderground v.1.15,2013-09-04 21:50:00,
2013-09-04 17:55:00,87.4,67.1,30.01,WSW,253,0.0,0.0,51,0.00,,,0.00,Wunderground v.1.15,2013-09-04 21:55:00,
2013-09-04 18:00:00,87.7,66.8,30.01,WSW,253,0.0,0.0,50,0.00,,,0.00,Wunderground v.1.15,2013-09-04 22:00:00,
2013-09-04 18:05:00,88.2,68.4,30.01,WSW,253,0.0,4.0,52,0.00,,,0.00,Wunderground v.1.15,2013-09-04 22:05:00,
2013-09-04 18:10:00,88.6,69.3,30.01,WSW,254,0.0,4.0,53,0.00,,,0.00,Wunderground v.1.15,2013-09-04 22:10:00,
2013-09-04 18:15:00,88.3,66.7,30.01,WSW,254,1.0,4.0,49,0.00,,,0.00,Wunderground v.1.15,2013-09-04 22:15:00,
2013-09-04 18:20:00,88.1,68.8,30.01,WSW,254,1.0,1.0,53,0.00,,,0.00,Wunderground v.1.15,2013-09-04 22:20:00,
2013-09-04 18:25:00,87.3,67.5,30.01,WSW,254,0.0,4.0,52,0.00,,,0.00,Wunderground v.1.15,2013-09-04 22:25:00,
2013-09-04 18:30:00,86.6,66.9,30.01,WSW,254,0.0,4.0,52,0.00,,,0.00,Wunderground v.1.15,2013-09-04 22:30:00,
2013-09-04 18:35:00,86.0,66.3,30.01,WSW,254,0.0,4.0,52,0.00,,,0.00,Wunderground v.1.15,2013-09-04 22:35:00,
2013-09-04 18:40:00,86.0,67.4,30.01,WSW,254,0.0,4.0,54,0.00,,,0.00,Wunderground v.1.15,2013-09-04 22:40:00,
2013-09-04 18:45:00,85.8,67.8,30.01,WSW,254,0.0,4.0,55,0.00,,,0.00,Wunderground v.1.15,2013-09-04 22:45:00,
2013-09-04 18:50:00,85.5,68.0,30.01,WSW,254,0.0,4.0,56,0.00,,,0.00,Wunderground v.1.15,2013-09-04 22:50:00,
2013-09-04 18:55:00,85.6,68.6,30.01,WSW,254,0.0,4.0,57,0.00,,,0.00,Wunderground v.1.15,2013-09-04 22:55:00,
2013-09-04 19:00:00,86.0,69.5,30.01,WSW,254,0.0,4.0,58,0.00,,,0.00,Wunderground v.1.15,2013-09-04 23:00:00,
2013-09-04 19:05:00,86.3,69.3,30.01,WSW,254,0.0,4.0,57,0.00,,,0.00,Wunderground v.1.15,2013-09-04 23:05:00,
2013-09-04 19:10:00,86.2,68.7,30.01,WSW,254,0.0,4.0,56,0.00,,,0.00,Wunderground v.1.15,2013-09-04 23:10:00,
2013-09-04 19:15:00,85.7,68.2,30.01,WSW,254,0.0,4.0,56,0.00,,,0.00,Wunderground v.1.15,2013-09-04 23:15:00,
2013-09-04 19:20:00,85.0,68.6,30.01,WSW,254,0.0,4.0,58,0.00,,,0.00,Wunderground v.1.15,2013-09-04 23:20:00,
2013-09-04 19:25:00,84.1,68.2,30.01,WSW,254,0.0,4.0,59,0.00,,,0.00,Wunderground v.1.15,2013-09-04 23:25:00,
2013-09-04 19:30:00,83.3,68.0,30.01,WSW,254,0.0,4.0,60,0.00,,,0.00,Wunderground v.1.15,2013-09-04 23:30:00,
2013-09-04 19:35:00,82.3,67.5,30.01,WSW,254,0.0,4.0,61,0.00,,,0.00,Wunderground v.1.15,2013-09-04 23:35:00,
2013-09-04 19:40:00,81.6,67.3,30.01,WSW,254,0.0,4.0,62,0.00,,,0.00,Wunderground v.1.15,2013-09-04 23:40:00,
2013-09-04 19:45:00,80.9,67.1,30.01,WSW,254,0.0,4.0,63,0.00,,,0.00,Wunderground v.1.15,2013-09-04 23:45:00,
2013-09-04 19:50:00,80.2,66.9,30.02,WSW,254,0.0,4.0,64,0.00,,,0.00,Wunderground v.1.15,2013-09-04 23:50:00,
2013-09-04 19:55:00,79.5,66.7,30.02,WSW,254,0.0,4.0,65,0.00,,,0.00,Wunderground v.1.15,2013-09-04 23:55:00,
2013-09-04 20:00:00,78.9,66.6,30.02,WSW,254,0.0,4.0,66,0.00,,,0.00,Wunderground v.1.15,2013-09-05 00:00:00,
2013-09-04 20:05:00,78.3,66.9,30.02,WSW,254,0.0,4.0,68,0.00,,,0.00,Wunderground v.1.15,2013-09-05 00:05:00,
2013-09-04 20:10:00,77.8,66.8,30.02,WSW,254,0.0,4.0,69,0.00,,,0.00,Wunderground v.1.15,2013-09-05 00:10:00,
2013-09-04 20:15:00,77.4,66.4,30.02,WSW,254,0.0,4.0,69,0.00,,,0.00,Wunderground v.1.15,2013-09-05 00:15:00,
2013-09-04 20:20:00,76.9,66.4,30.02,WSW,254,0.0,4.0,70,0.00,,,0.00,Wunderground v.1.15,2013-09-05 00:20:00,
2013-09-04 20:25:00,76.6,66.5,30.02,WSW,254,0.0,4.0,71,0.00,,,0.00,Wunderground v.1.15,2013-09-05 00:25:00,
2013-09-04 20:30:00,76.2,66.5,30.03,WSW,254,0.0,4.0,72,0.00,,,0.00,Wunderground v.1.15,2013-09-05 00:30:00,
2013-09-04 20:35:00,75.9,66.2,30.03,WSW,254,0.0,4.0,72,0.00,,,0.00,Wunderground v.1.15,2013-09-05 00:35:00,
2013-09-04 20:40:00,75.6,66.3,30.03,WSW,254,0.0,4.0,73,0.00,,,0.00,Wunderground v.1.15,2013-09-05 00:40:00,
2013-09-04 20:45:00,75.4,65.7,30.03,WSW,254,0.0,4.0,72,0.00,,,0.00,Wunderground v.1.15,2013-09-05 00:45:00,
2013-09-04 20:55:00,75.0,66.1,30.04,WSW,254,0.0,4.0,74,0.00,,,0.00,Wunderground v.1.15,2013-09-05 00:55:00,
2013-09-04 21:00:00,74.8,66.0,30.04,WSW,254,0.0,4.0,74,0.00,,,0.00,Wunderground v.1.15,2013-09-05 01:00:00,
2013-09-04 21:05:00,74.6,66.5,30.04,WSW,254,0.0,4.0,76,0.00,,,0.00,Wunderground v.1.15,2013-09-05 01:05:00,
2013-09-04 21:10:00,74.5,66.4,30.04,WSW,254,0.0,4.0,76,0.00,,,0.00,Wunderground v.1.15,2013-09-05 01:10:00,
2013-09-04 21:15:00,74.3,66.6,30.04,WSW,254,0.0,4.0,77,0.00,,,0.00,Wunderground v.1.15,2013-09-05 01:15:00,
2013-09-04 21:20:00,74.3,67.0,30.04,WSW,254,0.0,4.0,78,0.00,,,0.00,Wunderground v.1.15,2013-09-05 01:20:00,
2013-09-04 21:25:00,74.3,67.4,30.05,WSW,254,0.0,4.0,79,0.00,,,0.00,Wunderground v.1.15,2013-09-05 01:25:00,
2013-09-04 21:30:00,74.3,67.7,30.05,WSW,254,0.0,4.0,80,0.00,,,0.00,Wunderground v.1.15,2013-09-05 01:30:00,
2013-09-04 21:35:00,74.3,68.1,30.05,WSW,254,0.0,4.0,81,0.00,,,0.00,Wunderground v.1.15,2013-09-05 01:35:00,
2013-09-04 21:40:00,74.2,68.0,30.05,WSW,254,0.0,4.0,81,0.00,,,0.00,Wunderground v.1.15,2013-09-05 01:40:00,
2013-09-04 21:45:00,74.1,67.9,30.05,WSW,254,0.0,4.0,81,0.00,,,0.00,Wunderground v.1.15,2013-09-05 01:45:00,
2013-09-04 21:50:00,74.0,68.2,30.05,WSW,254,0.0,4.0,82,0.00,,,0.00,Wunderground v.1.15,2013-09-05 01:50:00,
2013-09-04 21:55:00,73.9,68.4,30.05,WSW,254,0.0,4.0,83,0.00,,,0.00,Wunderground v.1.15,2013-09-05 01:55:00,
2013-09-04 22:00:00,73.8,68.3,30.05,WSW,254,0.0,4.0,83,0.00,,,0.00,Wunderground v.1.15,2013-09-05 02:00:00,
2013-09-04 22:05:00,73.6,68.1,30.05,WSW,254,0.0,4.0,83,0.00,,,0.00,Wunderground v.1.15,2013-09-05 02:05:00,
2013-09-04 22:10:00,73.5,68.0,30.05,WSW,254,0.0,4.0,83,0.00,,,0.00,Wunderground v.1.15,2013-09-05 02:10:00,
2013-09-04 22:15:00,73.4,68.3,30.06,WSW,254,0.0,4.0,84,0.00,,,0.00,Wunderground v.1.15,2013-09-05 02:15:00,
2013-09-04 22:20:00,73.3,68.2,30.06,WSW,254,0.0,4.0,84,0.00,,,0.00,Wunderground v.1.15,2013-09-05 02:20:00,
2013-09-04 22:25:00,73.2,68.4,30.06,WSW,254,0.0,4.0,85,0.00,,,0.00,Wunderground v.1.15,2013-09-05 02:25:00,
2013-09-04 22:30:00,73.2,68.4,30.06,WSW,254,0.0,4.0,85,0.00,,,0.00,Wunderground v.1.15,2013-09-05 02:30:00,
2013-09-04 22:35:00,73.1,68.3,30.06,WSW,254,0.0,4.0,85,0.00,,,0.00,Wunderground v.1.15,2013-09-05 02:35:00,
2013-09-04 22:40:00,73.1,68.3,30.06,N/A,-737280,0.0,-999.0,85,0.00,,,0.00,Wunderground v.1.15,2013-09-05 02:40:00,
2013-09-04 22:45:00,72.7,68.3,30.07,N/A,-737280,0.0,-999.0,86,0.00,,,0.00,Wunderground v.1.15,2013-09-05 02:45:00,
2013-09-04 22:50:00,72.7,68.3,30.07,N/A,-737280,0.0,-999.0,86,0.00,,,0.00,Wunderground v.1.15,2013-09-05 02:50:00,
2013-09-04 22:55:00,72.7,68.3,30.07,N/A,-737280,0.0,-999.0,86,0.00,,,0.00,Wunderground v.1.15,2013-09-05 02:55:00,
2013-09-04 23:00:00,72.7,68.3,30.07,N/A,-737280,0.0,-999.0,86,0.00,,,0.00,Wunderground v.1.15,2013-09-05 03:00:00,
2013-09-04 23:05:00,72.7,68.3,30.07,N/A,-737280,0.0,-999.0,86,0.00,,,0.00,Wunderground v.1.15,2013-09-05 03:05:00,
2013-09-04 23:10:00,72.7,68.3,30.07,N/A,-737280,0.0,-999.0,86,0.00,,,0.00,Wunderground v.1.15,2013-09-05 03:10:00,
2013-09-04 23:15:00,72.1,68.0,30.08,N/A,-737280,0.0,-999.0,87,0.00,,,0.00,Wunderground v.1.15,2013-09-05 03:15:00,
2013-09-04 23:20:00,72.1,68.0,30.08,N/A,-737280,0.0,-999.0,87,0.00,,,0.00,Wunderground v.1.15,2013-09-05 03:20:00,
2013-09-04 23:25:00,72.1,68.0,30.08,N/A,-737280,0.0,-999.0,87,0.00,,,0.00,Wunderground v.1.15,2013-09-05 03:25:00,
2013-09-04 23:30:00,72.1,68.0,30.08,N/A,-737280,0.0,-999.0,87,0.00,,,0.00,Wunderground v.1.15,2013-09-05 03:30:00,
2013-09-04 23:35:00,72.1,68.0,30.08,N/A,-737280,0.0,-999.0,87,0.00,,,0.00,Wunderground v.1.15,2013-09-05 03:35:00,
2013-09-04 23:40:00,72.1,68.0,30.08,N/A,-737280,0.0,-999.0,87,0.00,,,0.00,Wunderground v.1.15,2013-09-05 03:40:00,
2013-09-04 23:45:00,71.6,68.2,30.08,N/A,-737280,0.0,-999.0,89,0.00,,,0.00,Wunderground v.1.15,2013-09-05 03:45:00,
2013-09-04 23:50:00,71.6,68.2,30.08,N/A,-737280,0.0,-999.0,89,0.00,,,0.00,Wunderground v.1.15,2013-09-05 03:50:00,
2013-09-04 23:55:00,71.6,68.2,30.08,N/A,-737280,0.0,-999.0,89,0.00,,,0.00,Wunderground v.1.15,2013-09-05 03:55:00,